Location: Abraham Lincoln Continuation High School
(33.9711°N, 117.3662°W)
Time: 14:46:07
(UTC+00:00)

Resurs 01 Rocket - Pass Details

Date: 21 September 2020
Orbit: 633 x 645 km, 98.0° (Epoch: 29 October)

Event Time Altitude Azimuth Distance (km) Brightness Sun altitude
Exits shadow 04:14:21 14° 4° (N) 1,800 4.1 -30.3°
Drops below altitude 10° 04:15:00 10° 1° (N) 2,046 4.4 -30.4°
Sets 04:17:16 0° 356° (N) 2,959 5.4 -30.9°
